DW5473 Weather Reports


Display with metric or nautical units.
time (UTC)temp
F
wind
direction
speed
MPH
gust
MPH
rain 1hr
in
rain 24hr
in
rain mn
in
humidity
%
barometer
mb
20260906100515 64 6 3.0 6.0 0.00 0.00 0.00 93 1019.7
20260906100015 65 358 3.0 6.0 0.00 0.00 0.00 93 1019.7
20260906095515 65 57 1.0 6.0 0.00 0.00 0.00 93 1019.6
20260906095015 65 359 1.0 3.0 0.00 0.00 0.00 93 1019.6
20260906094015 65 352 1.0 6.0 0.00 0.00 0.00 93 1019.3
20260906093515 65 6 1.0 3.0 0.00 0.00 0.00 93 1019.3
20260906093014 65 357 1.0 4.0 0.00 0.00 0.00 93 1019.4
20260906092517 65 359 1.0 6.0 0.00 0.00 0.00 93 1019.3
20260906092015 65 358 1.0 6.0 0.00 0.00 0.00 93 1019.3
20260906091016 66 356 1.0 4.0 0.00 0.00 0.00 92 1019.2
20260906090521 66 355 1.0 4.0 0.00 0.00 0.00 92 1019.2
20260906090018 66 352 0.0 3.0 0.00 0.00 0.00 92 1019.2
20260906085516 66 352 0.0 1.0 0.00 0.00 0.00 92 1019.2
20260906084515 67 352 1.0 3.0 0.00 0.00 0.00 92 1019.2
20260906084015 67 47 1.0 3.0 0.00 0.00 0.00 92 1019.2
20260906083515 67 76 1.0 3.0 0.00 0.00 0.00 92 1019.1
20260906083015 67 78 0.0 1.0 0.00 0.00 0.00 92 1019.2
20260906082515 67 78 0.0 1.0 0.00 0.00 0.00 92 1019.2
20260906082016 67 78 0.0 1.0 0.00 0.00 0.00 92 1019.2
20260906081016 67 78 1.0 4.0 0.00 0.00 0.00 92 1019.2
20260906080510 67 72 1.0 3.0 0.00 0.00 0.00 92 1019.3
20260906080007 67 72 1.0 4.0 0.00 0.00 0.00 92 1019.3
20260906075505 68 74 1.0 4.0 0.00 0.00 0.00 92 1019.2
20260906075004 68 76 1.0 4.0 0.00 0.00 0.00 92 1019.3
20260906074004 68 79 3.0 6.0 0.00 0.00 0.00 92 1019.5
20260906073002 68 80 1.0 6.0 0.00 0.00 0.00 92 1019.5
20260906072506 68 89 3.0 7.0 0.00 0.00 0.00 92 1019.4
20260906072003 68 63 4.0 7.0 0.00 0.00 0.00 92 1019.3
20260906071504 68 46 4.0 7.0 0.00 0.00 0.00 92 1019.5
20260906071005 68 74 3.0 7.0 0.00 0.00 0.00 92 1019.6
20260906070005 68 116 4.0 10.0 0.00 0.00 0.00 92 1019.6
20260906065506 68 86 4.0 10.0 0.00 0.00 0.00 92 1019.7
20260906065004 68 85 4.0 9.0 0.00 0.00 0.00 92 1019.6
20260906064004 68 53 3.0 7.0 0.00 0.00 0.00 92 1019.7
20260906063459 68 54 4.0 9.0 0.00 0.00 0.00 92 1019.7
20260906062449 68 85 3.0 9.0 0.00 0.00 0.00 92 1019.7
20260906061448 68 92 5.0 15.0 0.00 0.00 0.00 92 1019.9
20260906060443 67 85 3.0 13.0 0.00 0.00 0.00 92 1019.8
20260906055940 67 118 1.0 6.0 0.00 0.00 0.00 91 1019.7
20260906055444 67 58 1.0 3.0 0.00 0.00 0.00 91 1019.6
20260906054940 68 58 1.0 4.0 0.00 0.00 0.00 91 1019.6
20260906054441 68 58 1.0 4.0 0.00 0.00 0.00 91 1019.5
20260906053940 68 57 1.0 4.0 0.00 0.00 0.00 91 1019.5
20260906053438 68 59 1.0 4.0 0.00 0.00 0.00 90 1019.3
20260906052939 68 63 1.0 4.0 0.00 0.00 0.00 90 1019.2
20260906052438 68 62 1.0 4.0 0.00 0.00 0.00 90 1019.2
20260906051940 68 16 1.0 4.0 0.00 0.00 0.00 90 1019.2
20260906051447 69 317 0.0 3.0 0.00 0.00 0.00 90 1019.3
20260906050942 69 317 0.0 1.0 0.00 0.00 0.00 89 1019.2
20260906050441 69 317 0.0 1.0 0.00 0.00 0.00 89 1019.2
20260906045939 69 317 0.0 3.0 0.00 0.00 0.00 89 1019.2
20260906044928 69 317 1.0 3.0 0.00 0.00 0.00 89 1019.0
20260906044418 69 317 0.0 3.0 0.00 0.00 0.00 89 1019.0
20260906043911 69 317 0.0 3.0 0.00 0.00 0.00 89 1019.0
20260906042401 69 317 1.0 4.0 0.00 0.00 0.00 89 1019.0
20260906041901 69 65 3.0 6.0 0.00 0.00 0.00 89 1018.8
20260906040902 70 20 3.0 9.0 0.00 0.00 0.00 89 1018.7
20260906040406 70 31 3.0 9.0 0.00 0.00 0.00 89 1018.7
20260906035906 70 72 4.0 9.0 0.00 0.00 0.00 88 1018.7
20260906035410 70 81 3.0 9.0 0.00 0.00 0.00 88 1018.6
20260906034906 70 57 3.0 7.0 0.00 0.00 0.00 88 1018.6
20260906034401 70 37 3.0 6.0 0.00 0.00 0.00 88 1018.5
20260906033902 70 64 3.0 9.0 0.00 0.00 0.00 87 1018.6
20260906033401 70 89 4.0 12.0 0.00 0.00 0.00 88 1018.5
20260906032903 70 56 4.0 12.0 0.00 0.00 0.00 87 1018.4
20260906032404 70 76 4.0 13.0 0.00 0.00 0.00 87 1018.4
20260906031901 71 87 5.0 13.0 0.00 0.00 0.00 87 1018.4
20260906031403 71 120 5.0 10.0 0.00 0.00 0.00 87 1018.4
20260906030902 71 99 5.0 15.0 0.00 0.00 0.00 87 1018.4
20260906030358 71 86 5.0 15.0 0.00 0.00 0.00 86 1018.5
20260906025855 71 123 5.0 15.0 0.00 0.00 0.00 87 1018.3
20260906025355 71 73 6.0 16.0 0.00 0.00 0.00 86 1018.3
20260906024854 71 70 6.0 16.0 0.00 0.00 0.00 86 1018.3
20260906024354 71 89 8.0 16.0 0.00 0.00 0.00 86 1018.2
20260906023855 71 66 8.0 21.0 0.00 0.00 0.00 86 1018.1
20260906023354 71 87 6.0 21.0 0.00 0.00 0.00 85 1018.1
20260906022857 72 115 8.0 19.0 0.00 0.00 0.00 85 1017.8
20260906022356 72 80 9.0 19.0 0.00 0.00 0.00 85 1017.7
20260906021857 72 112 9.0 18.0 0.00 0.00 0.00 84 1017.6
20260906021359 72 91 8.0 18.0 0.00 0.00 0.00 84 1017.5
20260906020855 73 86 6.0 15.0 0.00 0.00 0.00 84 1017.5
20260906020357 73 88 5.0 15.0 0.00 0.00 0.00 84 1017.5
20260906015855 73 84 5.0 15.0 0.00 0.00 0.00 84 1017.5
20260906015353 73 110 5.0 15.0 0.00 0.00 0.00 84 1017.4
20260906014852 73 103 5.0 15.0 0.00 0.00 0.00 84 1017.3
20260906014347 74 102 5.0 10.0 0.00 0.00 0.00 84 1017.2
20260906013841 74 70 5.0 18.0 0.00 0.00 0.00 84 1017.3
20260906013332 74 122 6.0 18.0 0.00 0.00 0.00 84 1017.1
20260906012833 74 116 5.0 13.0 0.00 0.00 0.00 84 1017.3
20260906010830 75 89 6.0 19.0 0.00 0.00 0.00 83 1017.4
20260906010331 75 88 6.0 18.0 0.00 0.00 0.00 84 1017.3
20260906005833 75 98 5.0 15.0 0.00 0.00 0.00 84 1017.2
20260906005331 76 86 5.0 12.0 0.00 0.00 0.00 84 1017.2
20260906004833 76 91 4.0 12.0 0.00 0.00 0.00 83 1017.2
20260906003831 76 74 3.0 7.0 0.00 0.00 0.00 82 1017.2
20260906003328 76 47 1.0 6.0 0.00 0.00 0.00 81 1017.2
20260906002829 77 20 1.0 6.0 0.00 0.00 0.00 80 1017.1
20260906002331 77 6 1.0 6.0 0.00 0.00 0.00 80 1017.1
20260906001829 77 351 1.0 7.0 0.00 0.00 0.00 79 1017.1
20260906001328 77 351 1.0 7.0 0.00 0.00 0.00 79 1017.1
20260906000831 78 342 1.0 6.0 0.00 0.00 0.00 78 1017.1
20260906000330 78 330 1.0 6.0 0.00 0.00 0.00 78 1017.1
20260905235830 78 6 1.0 6.0 0.00 0.00 0.00 77 1017.1
20260905235329 78 11 3.0 6.0 0.00 0.00 0.00 77 1017.2
20260905234830 79 357 3.0 9.0 0.00 0.00 0.00 76 1017.2
20260905234330 79 338 3.0 9.0 0.00 0.00 0.00 75 1017.1
20260905233331 80 355 3.0 7.0 0.00 0.00 0.00 75 1017.1
20260905232831 80 26 3.0 9.0 0.00 0.00 0.00 74 1017.1
20260905231830 80 16 3.0 7.0 0.00 0.00 0.00 74 1017.0
20260905231328 80 355 3.0 12.0 0.00 0.00 0.00 75 1017.0
20260905230828 80 347 4.0 12.0 0.00 0.00 0.00 74 1017.0
20260905230329 80 6 4.0 13.0 0.00 0.00 0.00 74 1017.0
20260905225830 80 349 4.0 13.0 0.00 0.00 0.00 74 1016.9
20260905225330 80 32 4.0 12.0 0.00 0.00 0.00 73 1016.8
20260905224829 81 36 4.0 12.0 0.00 0.00 0.00 73 1016.8
20260905224329 81 51 4.0 12.0 0.00 0.00 0.00 73 1016.8
20260905223829 81 6 4.0 13.0 0.00 0.00 0.00 73 1016.6
20260905223331 81 45 4.0 13.0 0.00 0.00 0.00 73 1016.7
20260905222831 81 28 5.0 13.0 0.00 0.00 0.00 72 1016.7
20260905222329 81 6 4.0 13.0 0.00 0.00 0.00 71 1016.7
20260905221829 81 353 4.0 9.0 0.00 0.00 0.00 72 1016.7
20260905220334 80 357 4.0 12.0 0.00 0.00 0.00 74 1016.6
20260905215831 80 6 4.0 9.0 0.00 0.00 0.00 74 1016.7
20260905214830 81 6 5.0 12.0 0.00 0.00 0.00 75 1016.6
20260905214330 81 69 4.0 10.0 0.00 0.00 0.00 75 1016.5
20260905213831 81 16 4.0 15.0 0.00 0.00 0.00 74 1016.6
20260905213330 81 42 4.0 15.0 0.00 0.00 0.00 74 1016.6
20260905212830 80 83 4.0 9.0 0.00 0.00 0.00 75 1016.5
20260905212329 80 73 3.0 9.0 0.00 0.00 0.00 76 1016.6
20260905211831 80 51 3.0 6.0 0.00 0.00 0.00 77 1016.6
20260905211330 79 35 4.0 10.0 0.00 0.00 0.00 79 1016.6
20260905210829 79 355 4.0 13.0 0.00 0.00 0.00 78 1016.6
20260905210329 79 69 4.0 13.0 0.00 0.00 0.00 78 1016.7
20260905205329 79 24 4.0 12.0 0.00 0.00 0.00 78 1016.6
20260905204829 79 68 4.0 12.0 0.00 0.00 0.00 78 1016.8
20260905204334 79 78 4.0 10.0 0.00 0.00 0.00 78 1016.7
20260905203829 79 57 3.0 9.0 0.00 0.00 0.00 79 1017.0
20260905202828 78 74 4.0 9.0 0.00 0.00 0.00 81 1017.0
20260905202329 78 352 4.0 7.0 0.00 0.00 0.00 81 1017.0
20260905201829 78 57 3.0 9.0 0.00 0.00 0.00 81 1017.1
20260905200833 78 24 4.0 12.0 0.00 0.00 0.00 81 1017.2
20260905200327 78 34 3.0 12.0 0.00 0.00 0.00 81 1017.1
20260905195823 78 11 3.0 13.0 0.00 0.00 0.00 81 1017.2
20260905194826 78 16 3.0 12.0 0.00 0.00 0.00 81 1017.1
20260905193821 79 78 4.0 12.0 0.00 0.00 0.00 81 1017.1
20260905193320 79 358 3.0 12.0 0.00 0.00 0.00 82 1017.2
20260905192822 79 51 3.0 12.0 0.00 0.00 0.00 81 1017.2
20260905192320 79 51 4.0 12.0 0.00 0.00 0.00 81 1017.2
20260905191818 79 73 4.0 10.0 0.00 0.00 0.00 82 1017.0
20260905191317 78 6 4.0 13.0 0.00 0.00 0.00 82 1017.0
20260905190314 79 72 3.0 7.0 0.00 0.00 0.00 82 1017.0
20260905185817 79 70 4.0 9.0 0.00 0.00 0.00 81 1017.1
20260905185315 79 16 4.0 13.0 0.00 0.00 0.00 82 1016.9
20260905183814 79 350 4.0 15.0 0.00 0.00 0.00 82 1017.1
20260905183317 78 33 4.0 15.0 0.00 0.00 0.00 82 1017.2
20260905182810 79 6 4.0 15.0 0.00 0.00 0.00 82 1017.2
20260905182311 79 349 4.0 15.0 0.00 0.00 0.00 81 1017.2
20260905181814 79 37 4.0 13.0 0.00 0.00 0.00 82 1017.2
20260905181309 79 86 4.0 13.0 0.00 0.00 0.00 81 1017.2
20260905180810 79 80 4.0 13.0 0.00 0.00 0.00 81 1017.3
20260905180310 79 347 4.0 9.0 0.00 0.00 0.00 82 1017.2
20260905175804 79 65 4.0 12.0 0.00 0.00 0.00 82 1017.2
20260905175306 79 353 5.0 15.0 0.00 0.00 0.00 81 1017.3
20260905174304 80 44 4.0 10.0 0.00 0.00 0.00 81 1017.3
20260905173803 80 90 4.0 10.0 0.00 0.00 0.00 81 1017.1
20260905173304 80 71 4.0 12.0 0.00 0.00 0.00 80 1017.1
20260905172807 80 349 4.0 12.0 0.00 0.00 0.00 80 1017.2
20260905172312 81 351 4.0 13.0 0.00 0.00 0.00 80 1017.1
20260905171807 81 70 5.0 13.0 0.00 0.00 0.00 80 1017.1
20260905170802 81 6 5.0 19.0 0.00 0.00 0.00 80 1017.0
20260905170303 81 67 5.0 19.0 0.00 0.00 0.00 80 1017.2
20260905165300 81 86 4.0 12.0 0.00 0.00 0.00 80 1017.4
20260905164751 80 26 4.0 10.0 0.00 0.00 0.00 81 1017.3
20260905164242 80 2 4.0 7.0 0.00 0.00 0.00 81 1017.2
20260905163739 80 338 4.0 7.0 0.00 0.00 0.00 82 1017.1
20260905163232 80 349 3.0 10.0 0.00 0.00 0.00 82 1017.2
20260905162732 81 316 4.0 10.0 0.00 0.00 0.00 81 1017.2
20260905162232 81 6 4.0 12.0 0.00 0.00 0.00 82 1017.3
20260905161734 80 85 4.0 12.0 0.00 0.00 0.00 82 1017.2
20260905161234 80 354 3.0 9.0 0.00 0.00 0.00 81 1017.2
20260905160732 80 347 3.0 9.0 0.00 0.00 0.00 83 1017.3
20260905160232 80 340 3.0 9.0 0.00 0.00 0.00 82 1017.3
20260905155733 80 6 3.0 9.0 0.00 0.00 0.00 81 1017.2
20260905155235 80 70 3.0 9.0 0.00 0.00 0.00 84 1017.3
20260905154735 80 51 4.0 9.0 0.00 0.00 0.00 83 1017.2
20260905154242 79 87 4.0 12.0 0.00 0.00 0.00 83 1017.3
20260905153733 79 6 4.0 12.0 0.00 0.00 0.00 83 1017.3
20260905153233 78 358 4.0 10.0 0.00 0.00 0.00 84 1017.2
20260905152731 79 78 4.0 10.0 0.00 0.00 0.00 84 1017.2
20260905152231 78 334 3.0 7.0 0.00 0.00 0.00 84 1017.2
20260905151232 78 341 4.0 12.0 0.00 0.00 0.00 84 1017.1
20260905150736 78 349 4.0 12.0 0.00 0.00 0.00 84 1016.9
20260905150232 79 87 4.0 13.0 0.00 0.00 0.00 84 1016.9
20260905145732 79 52 4.0 13.0 0.00 0.00 0.00 85 1016.8
20260905145230 78 79 4.0 12.0 0.00 0.00 0.00 86 1016.8
20260905144730 78 49 3.0 12.0 0.00 0.00 0.00 86 1016.6
20260905144240 78 351 3.0 7.0 0.00 0.00 0.00 86 1016.6
20260905143738 77 338 4.0 7.0 0.00 0.00 0.00 87 1016.6
20260905143238 77 340 3.0 7.0 0.00 0.00 0.00 87 1016.5
20260905142733 77 119 3.0 9.0 0.00 0.00 0.00 88 1016.5
20260905142232 76 48 4.0 9.0 0.00 0.00 0.00 89 1016.4
20260905141731 76 1 4.0 12.0 0.00 0.00 0.00 89 1016.3
20260905140734 75 75 4.0 13.0 0.00 0.00 0.00 91 1016.4
20260905140231 75 82 4.0 12.0 0.00 0.00 0.00 92 1016.4
20260905135229 75 43 3.0 7.0 0.00 0.00 0.00 94 1016.5
20260905134233 74 344 3.0 9.0 0.00 0.00 0.00 94 1016.5
20260905133732 74 60 3.0 9.0 0.00 0.00 0.00 94 1016.5
20260905133231 74 6 3.0 9.0 0.00 0.00 0.00 94 1016.4
20260905132730 74 35 3.0 9.0 0.00 0.00 0.00 94 1016.2
20260905131727 73 6 3.0 6.0 0.00 0.00 0.00 95 1016.3
20260905131229 73 51 3.0 6.0 0.00 0.00 0.00 95 1016.2
20260905130731 73 45 3.0 7.0 0.00 0.00 0.00 95 1016.2
20260905130226 73 344 3.0 9.0 0.00 0.00 0.00 95 1016.1
20260905125726 73 324 3.0 9.0 0.00 0.00 0.00 95 1016.1
20260905125226 73 6 3.0 9.0 0.00 0.00 0.00 95 1016.1
20260905124727 73 359 3.0 9.0 0.00 0.00 0.00 95 1016.1
20260905124226 73 349 3.0 6.0 0.00 0.00 0.00 95 1016.2
20260905123728 72 2 3.0 6.0 0.00 0.00 0.00 95 1016.0
20260905123226 72 359 1.0 4.0 0.00 0.00 0.00 95 1016.0
20260905122724 72 297 1.0 4.0 0.00 0.00 0.00 95 1015.9
20260905122226 72 6 1.0 3.0 0.00 0.00 0.00 95 1015.7
20260905121719 72 6 1.0 3.0 0.00 0.00 0.00 95 1015.6
20260905121215 72 6 0.0 3.0 0.00 0.00 0.00 95 1015.4
20260905120711 72 6 1.0 3.0 0.00 0.00 0.00 94 1015.3
20260905115207 72 343 1.0 4.0 0.00 0.00 0.00 94 1015.2
20260905114207 72 343 1.0 3.0 0.00 0.00 0.00 94 1015.1
20260905113706 72 340 1.0 3.0 0.00 0.00 0.00 94 1015.0
20260905113207 73 2 0.0 3.0 0.00 0.00 0.00 94 1015.0
20260905112707 73 2 1.0 3.0 0.00 0.00 0.00 94 1015.0
20260905111708 73 6 1.0 3.0 0.00 0.00 0.00 94 1014.9
20260905111210 73 6 0.0 3.0 0.00 0.00 0.00 94 1014.7
20260905110706 73 6 1.0 3.0 0.00 0.00 0.00 94 1014.5
20260905110207 73 6 1.0 4.0 0.00 0.00 0.00 94 1014.6
20260905105708 73 348 1.0 4.0 0.00 0.00 0.00 94 1014.6
20260905105201 74 350 1.0 4.0 0.00 0.00 0.00 94 1014.6
20260905104703 74 348 1.0 4.0 0.00 0.00 0.00 94 1014.5
20260905104201 74 6 1.0 4.0 0.00 0.00 0.00 94 1014.5
20260905103700 74 29 1.0 7.0 0.00 0.00 0.00 94 1014.6
20260905103159 74 344 1.0 7.0 0.00 0.00 0.00 94 1014.7
20260905102658 74 11 1.0 4.0 0.00 0.00 0.00 94 1014.6
20260905102157 74 16 1.0 4.0 0.00 0.00 0.00 94 1014.5